Date String (YYYY-MM-DD hh:mm:ss) UTC,Instrument flags,Ambient pressure (hPa),Sample flow (lpm),Bypass flow (lpm),Sample temperature (°C),Ambient temperature (°C),ASC tube jacket temperature (°C),LED temperature (°C),Box temperature (°C),Sample RH (%),Span deviation,Mass concentration (μg/m³),Mass concentration (μg/m³),Mass concentration (μg/m³)
DateTimeUTC,F1_M11,P_M11,Q1_M11,Q2_M11,T1_M11,T2_M11,T3_M11,T4_M11,T5_M11,U1_M11,ZSPAN_M11,X2_M11,X0_M11,X1_M11
2023-02-14 11:00:00,,0800.9,5.01,0.00,22.3,20.7,00.0,31.3,24.0,12.3,0000.0,0001.95,0006.30,0001.41
2023-02-14 11:01:00,,0800.9,5.03,0.00,22.3,20.6,00.0,31.3,23.9,12.2,0000.0,0001.94,0005.58,0001.42
2023-02-14 11:02:00,,0800.8,5.00,0.00,22.3,20.5,00.0,31.2,23.8,12.1,0000.0,0001.95,0006.32,0001.43
2023-02-14 11:03:00,,0801.0,4.99,0.00,22.2,20.4,00.0,31.2,23.8,12.1,0000.0,0001.98,0006.72,0001.44
2023-02-14 11:04:00,,0801.2,5.00,0.00,22.2,20.3,00.0,31.2,23.8,11.7,0000.0,0002.00,0007.03,0001.45
2023-02-14 11:05:00,,0800.9,5.01,0.00,22.2,21.2,00.0,31.2,24.0,12.0,0000.0,0002.05,0007.36,0001.45
2023-02-14 11:06:00,,0801.0,4.98,0.00,22.3,22.3,00.0,31.1,24.3,11.9,0000.0,0002.10,0007.69,0001.46
2023-02-14 11:07:00,,0801.0,5.01,0.00,22.5,22.9,00.0,31.2,24.6,11.8,0000.0,0002.11,0008.12,0001.46
2023-02-14 11:08:00,,0801.0,4.98,0.00,22.5,22.5,00.0,31.2,24.5,11.9,0000.0,0002.15,0008.73,0001.47
2023-02-14 11:09:00,,0800.7,4.96,0.00,22.5,22.1,00.0,31.3,24.4,11.8,0000.0,0002.17,0008.76,0001.47
2023-02-14 11:10:00,,0801.0,5.01,0.00,22.5,21.6,00.0,31.3,24.3,11.6,0000.0,0002.15,0008.90,0001.47
2023-02-14 11:11:00,,0801.0,4.99,0.00,22.5,21.4,00.0,31.3,24.2,11.7,0000.0,0002.17,0008.98,0001.46
2023-02-14 11:12:00,,0800.8,5.00,0.00,22.5,21.1,00.0,31.3,24.1,11.8,0000.0,0002.17,0009.14,0001.45
2023-02-14 11:13:00,,0800.8,5.00,0.00,22.4,20.9,00.0,31.3,24.0,11.6,0000.0,0002.22,0008.91,0001.44
2023-02-14 11:14:00,,0800.9,5.01,0.00,22.4,20.7,00.0,31.3,24.0,11.7,0000.0,0002.24,0009.21,0001.44
2023-02-14 11:15:00,,0800.8,5.00,0.00,22.3,20.5,00.0,31.3,23.9,11.7,0000.0,0002.21,0008.95,0001.42
2023-02-14 11:16:00,,0800.9,5.02,0.00,22.3,20.4,00.0,31.3,23.8,11.8,0000.0,0002.25,0008.87,0001.42
2023-02-14 11:17:00,,0800.8,5.00,0.00,22.2,20.3,00.0,31.3,23.8,11.6,0000.0,0002.23,0008.59,0001.42
2023-02-14 11:18:00,,0800.5,5.00,0.00,22.2,20.8,00.0,31.2,23.9,11.4,0000.0,0002.24,0008.19,0001.41
2023-02-14 11:19:00,,0800.7,5.01,0.00,22.3,22.0,00.0,31.2,24.3,10.9,0000.0,0002.29,0008.33,0001.40
2023-02-14 11:20:00,,0800.6,4.99,0.00,22.5,23.0,00.0,31.2,24.6,11.0,0000.0,0002.28,0008.46,0001.39
2023-02-14 11:21:00,,0800.6,4.99,0.00,22.6,22.7,00.0,31.3,24.6,11.2,0000.0,0002.36,0009.00,0001.40
2023-02-14 11:22:00,,0800.6,4.99,0.00,22.6,22.2,00.0,31.3,24.5,10.9,0000.0,0002.41,0008.77,0001.40
2023-02-14 11:23:00,,0800.4,5.01,0.00,22.6,21.7,00.0,31.3,24.4,10.8,0000.0,0002.48,0009.50,0001.41
2023-02-14 11:24:00,,0800.5,5.01,0.00,22.5,21.4,00.0,31.4,24.3,10.6,0000.0,0002.46,0009.97,0001.41
2023-02-14 11:25:00,,0800.6,5.00,0.00,22.5,21.1,00.0,31.3,24.2,10.8,0000.0,0002.53,0010.04,0001.42
2023-02-14 11:26:00,,0800.6,5.00,0.00,22.5,20.9,00.0,31.3,24.1,11.0,0000.0,0002.66,0010.51,0001.44
2023-02-14 11:27:00,,0800.8,5.00,0.00,22.4,20.6,00.0,31.3,24.0,11.0,0000.0,0002.68,0010.68,0001.46
2023-02-14 11:28:00,,0800.8,5.00,0.00,22.3,20.5,00.0,31.3,23.9,10.9,0000.0,0002.65,0010.67,0001.47
2023-02-14 11:29:00,,0800.9,5.01,0.00,22.3,20.4,00.0,31.3,23.8,10.9,0000.0,0002.62,0010.63,0001.48
2023-02-14 11:30:00,,0800.9,4.98,0.00,22.3,20.3,00.0,31.3,23.8,11.1,0000.0,0002.58,0010.16,0001.48
2023-02-14 11:31:00,,0800.9,5.01,0.00,22.2,20.5,00.0,31.3,23.8,11.1,0000.0,0002.58,0010.12,0001.48
2023-02-14 11:32:00,,0800.9,5.01,0.00,22.3,21.6,00.0,31.2,24.1,11.0,0000.0,0002.57,0009.87,0001.48
2023-02-14 11:33:00,,0800.9,5.00,0.00,22.4,22.7,00.0,31.2,24.4,11.1,0000.0,0002.45,0009.43,0001.46
2023-02-14 11:34:00,,0800.6,5.00,0.00,22.5,23.0,00.0,31.3,24.6,11.0,0000.0,0002.36,0008.32,0001.45
2023-02-14 11:35:00,,0800.5,4.99,0.00,22.6,22.4,00.0,31.3,24.5,10.9,0000.0,0002.33,0007.73,0001.44
2023-02-14 11:36:00,,0800.4,5.01,0.00,22.6,21.9,00.0,31.3,24.4,11.0,0000.0,0002.23,0007.15,0001.43
2023-02-14 11:37:00,,0800.6,4.99,0.00,22.5,21.4,00.0,31.3,24.2,11.1,0000.0,0002.12,0006.86,0001.40
2023-02-14 11:38:00,,0800.7,5.00,0.00,22.5,21.1,00.0,31.3,24.1,11.1,0000.0,0002.05,0006.40,0001.37
2023-02-14 11:39:00,,0800.8,5.00,0.00,22.4,20.8,00.0,31.3,24.0,11.1,0000.0,0002.05,0006.38,0001.35
2023-02-14 11:40:00,,0800.8,4.99,0.00,22.4,20.6,00.0,31.3,23.9,11.1,0000.0,0002.05,0006.34,0001.33
2023-02-14 11:41:00,,0800.8,4.99,0.00,22.3,20.5,00.0,31.3,23.9,11.0,0000.0,0002.07,0006.25,0001.31
2023-02-14 11:42:00,,0800.8,5.01,0.00,22.3,20.3,00.0,31.3,23.8,11.1,0000.0,0002.04,0005.17,0001.31
2023-02-14 11:43:00,,0800.6,5.01,0.00,22.2,20.3,00.0,31.3,23.8,11.2,0000.0,0001.98,0004.28,0001.29
2023-02-14 11:44:00,,0800.7,5.01,0.00,22.2,20.2,00.0,31.2,23.7,11.2,0000.0,0002.06,0004.62,0001.28
2023-02-14 11:45:00,,0800.9,5.00,0.00,22.2,21.1,00.0,31.2,24.0,11.1,0000.0,0002.07,0004.85,0001.27
2023-02-14 11:46:00,,0800.8,4.98,0.00,22.3,22.5,00.0,31.1,24.3,11.1,0000.0,0002.06,0005.01,0001.26
2023-02-14 11:47:00,,0800.9,5.00,0.00,22.5,23.3,00.0,31.1,24.6,10.8,0000.0,0002.10,0005.99,0001.26
2023-02-14 11:48:00,,0800.9,4.99,0.00,22.6,23.3,00.0,31.2,24.7,10.5,0000.0,0002.13,0005.91,0001.26
2023-02-14 11:49:00,,0800.8,5.01,0.00,22.6,22.6,00.0,31.3,24.5,10.5,0000.0,0002.13,0005.79,0001.26
2023-02-14 11:50:00,,0800.7,4.96,0.00,22.6,22.0,00.0,31.3,24.4,10.6,0000.0,0002.15,0005.95,0001.27
2023-02-14 11:51:00,,0800.3,5.01,0.00,22.6,21.6,00.0,31.4,24.3,10.5,0000.0,0002.35,0006.49,0001.29
2023-02-14 11:52:00,,0800.6,5.02,0.00,22.5,21.2,00.0,31.4,24.2,10.4,0000.0,0002.48,0006.91,0001.32
2023-02-14 11:53:00,,0800.7,4.98,0.00,22.5,20.9,00.0,31.4,24.1,10.6,0000.0,0002.56,0007.27,0001.34
2023-02-14 11:54:00,,0800.7,5.01,0.00,22.4,20.7,00.0,31.3,24.0,10.7,0000.0,0002.63,0007.46,0001.36
2023-02-14 11:55:00,,0800.9,5.00,0.00,22.4,20.5,00.0,31.3,23.9,10.6,0000.0,0002.65,0007.52,0001.38
2023-02-14 11:56:00,,0800.9,5.00,0.00,22.3,20.3,00.0,31.3,23.8,10.5,0000.0,0002.64,0007.43,0001.39
2023-02-14 11:57:00,,0800.7,5.00,0.00,22.2,20.2,00.0,31.3,23.8,10.6,0000.0,0002.65,0007.18,0001.41
2023-02-14 11:58:00,,0801.0,5.01,0.00,22.2,20.2,00.0,31.3,23.7,10.4,0000.0,0002.65,0006.44,0001.44
2023-02-14 11:59:00,,0801.2,4.99,0.00,22.2,21.2,00.0,31.2,24.0,10.3,0000.0,0002.63,0005.58,0001.46
